"Pseudo-MPEC" for KEPLER

Created Sun Jul 28 14:32:28 2013 using Find_Orb

Astrometry:
KEPLER        C2009 03 17.34708 11 05 20.14 +23 47 10.2          19.6 V      703
KEPLER        C2009 03 17.35182 11 05 18.52 +23 47 02.5          18.6 V      703
KEPLER        C2009 03 17.35662 11 05 17.08 +23 46 55.5          19.6 V      703
KEPLER        C2009 03 17.36141 11 05 15.61 +23 46 49.2          19.7 V      703
KEPLER        C2009 03 17.39081 11 05 06.93 +23 45 57.8          19.1 V      703
KEPLER        C2009 03 17.39465 11 05 05.92 +23 45 50.8          19.1 V      703
KEPLER        C2009 03 17.39849 11 05 04.95 +23 45 42.9          19.0 V      703
KEPLER        C2009 03 17.40234 11 05 03.91 +23 45 34.7          19.1 V      703
KEPLER        C2009 03 17.43825 11 04 55.05 +23 43 30.8          19.1 R      H01
KEPLER        C2009 03 17.44271 11 04 54.40 +23 43 20.0          19.3 R      H01
KEPLER        C2009 03 17.44655 11 04 53.87 +23 43 10.7          19.2 R      H01
KEPLER        C2009 03 17.45082 11 04 53.33 +23 43 00.1          19.3 R      H01
KEPLER        C2009 03 18.88385 11 07 23.36 +23 29 54.5                      J95
KEPLER        C2009 03 18.89011 11 07 22.12 +23 29 56.8          18.9 R      J95
KEPLER        C2009 03 18.89596 11 07 20.95 +23 29 58.7          18.7 R      J95
KEPLER        C2009 03 18.90183 11 07 19.76 +23 30 00.7          18.8 R      J95
KEPLER        C2009 03 20.85968 11 08 40.46 +23 15 12.4          20.0 R      J95
KEPLER        C2009 03 20.87593 11 08 37.86 +23 15 18.7          20.4 R      J95

Station data:
(703) Catalina Sky Survey (N32.41712 W110.73264).   Observers S. Larson, E.
    Beshore, E. Christensen, R. Hill, S. Howard, D. McLean.
(H01) Magdalena Ridge Observatory, Socorro (N33.9853 W107.1892).   Observers
    W. H. Ryan, E. V. Ryan.
(J95) Great Shefford (N51.47502 W1.44700).   Observer P. Birtwhistle.  0.40-m
    f/6.0 Schmidt-Cassegrain + CCD.

Orbital elements (geocentric,  after launch):   KEPLER
   Perigee 2009 Mar 7.224827 +/- 0.0322 TT =  5:23:45 (JD 2454897.724827)
Epoch 2009 Mar  7.5 TT = JDT 2454898.0                        Find_Orb
q  6602.46751 +/- 33
H   28.7  G 0.15                    Peri.  309.62672 +/- 0.26
                                    Node    45.23197 +/- 0.20
e   1.0070612 +/- 0.000317          Incl.   28.53228 +/- 0.030
From 18 observations 2009 Mar. 17-20; mean residual 0".394.

Orbital elements (heliocentric):   KEPLER
   Perihelion 2008 Dec 15.583873 +/- 0.0772 TT = 14:00:46 (JD 2454816.083873)
Epoch 2009 Mar 20.0 TT = JDT 2454910.5   Earth MOID: 0.0000   Find_Orb
M  93.02747 +/- 0.09
n   0.98529227 +/- 0.000149         Peri.  279.03058 +/- 0.18
a   1.00021339 +/- 0.000101         Node   162.03075 +/- 0.07
e   0.0448485 +/- 0.00023           Incl.    0.53416 +/- 0.0038
P   1.00/365.37d           H 28.7   G  0.15   U  6.8
q 0.95535531 +/- 0.000324    Q 1.04507147 +/- 0.000126
From 18 observations 2009 Mar. 17-20; mean residual 0".394.


Residuals in arcseconds:
090317 703 .406- .299+    090317 703 .536+ .291+    090318 J95 .588+ .153+
090317 703 1.28- .727-    090317 703 .363- .147-    090318 J95 .096+ .083+
090317 703 .226+ .668-    090317 H01 .002- .132-    090318 J95 .085- .061+
090317 703 .890+ .372+    090317 H01 .034+ .169-    090318 J95 .094- .423+
090317 703 .045- .179+    090317 H01 .024- .099-    090320 J95 .167- .298-
090317 703 .147+ .606+    090317 H01 .041+ .174-    090320 J95 .092- .053-

Ephemerides:
Date (UT)    RA              Dec         delta   r     elong  mag   rvel
---- -- --  ------------   ------------  ------ ------ -----  --- ------
2009 03 08  10 20 02.988   +27 05 28.12  198449 0.9937 154.4 15.5  2.078
2009 03 09  10 41 35.495   +26 08 23.24  354919 0.9950 156.8 16.7  1.627
2009 03 10  10 49 45.191   +25 34 05.28  485962 0.9961 157.3 17.4  1.425
2009 03 11  10 54 23.707   +25 08 31.88  603442 0.9971 157.4 17.8  1.304
2009 03 12  10 57 34.226   +24 49 19.69  712422 0.9980 157.3 18.2  1.224
2009 03 13  10 59 55.548   +24 34 14.13  815518 0.9989 157.1 18.5  1.166
2009 03 14  11 01 45.432   +24 21 49.43  914279 0.9998 156.7 18.8  1.122
2009 03 15  11 03 13.630   +24 11 12.03  .00675 1.0006 156.4 19.0  1.089
2009 03 16  11 04 26.128   +24 01 46.73  .00737 1.0014 155.9 19.2  1.062
2009 03 17  11 05 26.911   +23 53 09.14  .00798 1.0022 155.4 19.4  1.042
2009 03 18  11 06 18.802   +23 45 01.60  .00858 1.0030 154.9 19.5  1.026
2009 03 19  11 07 03.903   +23 37 10.88  .00916 1.0038 154.3 19.7  1.014
2009 03 20  11 07 43.844   +23 29 26.80  .00975 1.0046 153.8 19.9  1.005
2009 03 21  11 08 19.935   +23 21 41.33  .01033 1.0053 153.2 20.0  0.999
2009 03 22  11 08 53.260   +23 13 48.05  .01090 1.0061 152.6 20.1  0.994
2009 03 23  11 09 24.741   +23 05 41.72  .01147 1.0068 152.0 20.3  0.992
2009 03 24  11 09 55.181   +22 57 18.09  .01205 1.0076 151.3 20.4  0.992
2009 03 25  11 10 25.287   +22 48 33.75  .01262 1.0083 150.7 20.5  0.992
2009 03 26  11 10 55.686   +22 39 26.03  .01319 1.0090 150.1 20.6  0.994
2009 03 27  11 11 26.931   +22 29 53.04  .01377 1.0097 149.5 20.7  0.997
2009 03 28  11 11 59.494   +22 19 53.66  .01435 1.0104 148.8 20.9  1.000
2009 03 29  11 12 33.762   +22 09 27.54  .01492 1.0111 148.2 21.0  1.004
2009 03 30  11 13 10.029   +21 58 35.10  .01551 1.0118 147.6 21.1  1.008
2009 03 31  11 13 48.488   +21 47 17.49  .01609 1.0125 147.0 21.2  1.012
2009 04 01  11 14 29.232   +21 35 36.41  .01667 1.0132 146.3 21.3  1.015
2009 04 02  11 15 12.263   +21 23 34.04  .01726 1.0138 145.7 21.3  1.019
2009 04 03  11 15 57.503   +21 11 12.81  .01785 1.0145 145.1 21.4  1.022
2009 04 04  11 16 44.807   +20 58 35.23  .01844 1.0152 144.5 21.5  1.025
2009 04 05  11 17 33.985   +20 45 43.78  .01904 1.0158 143.9 21.6  1.029
2009 04 06  11 18 24.820   +20 32 40.70  .01963 1.0165 143.3 21.7  1.032